Regional Weather Roundup
Issued by NWS

Home | Current Version | Previous Version | Graphics & Text | Print | Product List | Glossary On
Versions: 1 2 3 4 5 6 7 8 9 10 11 12 13 14 15 16 17 18 19 20 21 22 23 24 25 26 27 28 29 30 31 32 33 34 35 36 37 38 39 40 41 42 43 44 45 46 47 48 49 50
000
ASUS43 KOAX 202110
RWRNE

WEATHER ROUNDUP FOR NEBRASKA
NATIONAL WEATHER SERVICE OMAHA NE
300 PM CST MON FEB 20 2017

NOTES: SATELLITE DATA IS BEING USED TO AUGMENT CLOUD COVER ABOVE
       12000 FEET.
       "FAIR" INDICATES FEW OR NO CLOUDS BELOW 12,000 FEET WITH NO
       SIGNIFICANT WEATHER AND/OR OBSTRUCTIONS TO VISIBILITY.

  * THESE STATIONS DO NOT REPORT WEATHER SUCH AS RAIN...SNOW OR FOG.

NEZ001>004-019>022-054>056-202200-
NEBRASKA PANHANDLE

CITY           SKY/WX    TMP DP  RH WIND       PRES   REMARKS
SCOTTSBLUFF    SUNNY     62  17  17 W17G29    29.91F
ALLIANCE       SUNNY     60  12  15 W16G25    29.90R
CHADRON        SUNNY     61  18  18 W10       29.87F
KIMBALL        SUNNY     61  25  25 NW20G28   29.96S
SIDNEY         SUNNY     60  12  15 NW21G28   29.95S
$$

NEZ057>060-069>072-079>082-202200-
SOUTHWEST NEBRASKA

CITY           SKY/WX    TMP DP  RH WIND       PRES   REMARKS
NORTH PLATTE   SUNNY     64  28  25 NW15G29   29.86S
IMPERIAL       SUNNY     62  20  19 N21G30    29.91R
LEXINGTON      SUNNY     62  33  33 N24G30    29.85R
MCCOOK         SUNNY     64  33  31 N20G31    29.86S
OGALLALA       SUNNY     63  22  20 NW16G24   29.91R
$$

NEZ005>010-023>029-035>040-094-202200-
NORTH CENTRAL NEBRASKA

CITY           SKY/WX    TMP DP  RH WIND       PRES   REMARKS
VALENTINE      SUNNY     60  27  28 NW17G26   29.83R
AINSWORTH      SUNNY     59  33  36 NW15G22   29.83R
BROKEN BOW     SUNNY     60  34  37 N25G36    29.83S
O`NEILL        MOSUNNY   59  40  50 NW23G30   29.81S
ORD            SUNNY     61  36  39 NW23G32   29.80S
THEDFORD       SUNNY     62  33  34 NW12G17   29.86R
$$

NEZ041-046>049-061>064-073>077-083>087-202200-
SOUTH CENTRAL NEBRASKA

CITY           SKY/WX    TMP DP  RH WIND       PRES   REMARKS
GRAND ISLAND   SUNNY     63  42  46 N17G25    29.79S
AURORA         SUNNY     64  42  45 N20       29.78R
HASTINGS       SUNNY     64  41  42 N20       29.80S
HEBRON         MOSUNNY   66  42  41 NW12G18   29.76R
HOLDREGE       SUNNY     60  34  37 N18G30    29.85R
KEARNEY *      SUNNY     61  36  39 N25G31    29.84R
YORK           SUNNY     63  41  45 N13G30    29.77S
$$

NEZ011>018-030>034-042>045-202200-
NORTHEAST NEBRASKA

CITY           SKY/WX    TMP DP  RH WIND       PRES   REMARKS
NORFOLK        SUNNY     60  41  49 NW14      29.76S
ALBION         SUNNY     62  42  47 NW23G29   29.78R
BLAIR          CLOUDY    60  57  88 SW9       29.75R
FREMONT        CLOUDY    60  52  73 W13       29.76R
TEKAMAH        CLOUDY    60  55  83 SW12      29.75R
WAYNE          CLOUDY    57  43  60 NW20G26   29.76S
$$

NEZ050>053-065>068-078-088>093-202200-
SOUTHEAST NEBRASKA

CITY           SKY/WX    TMP DP  RH WIND       PRES   REMARKS
LINCOLN        CLOUDY    64  51  62 W14       29.76F
OMAHA EPPLEY   CLOUDY    61  55  81 SW6       29.75R
BEATRICE       CLOUDY    62  53  72 W10       29.76S
FALLS CITY     CLOUDY    63  56  78 S7        29.77S
NEBRASKA CITY  CLOUDY    60  57  89 SW9       29.77R
PLATTSMOUTH    CLOUDY    60  55  84 SW6       29.77R
$$

NEZ044-045-051>053-067-202200-
OMAHA AREA

CITY           SKY/WX    TMP DP  RH WIND       PRES   REMARKS
OMAHA EPPLEY   CLOUDY    61  55  81 SW6       29.75R
BLAIR          CLOUDY    60  57  88 SW9       29.75R
FREMONT        CLOUDY    60  52  73 W13       29.76R
MILLARD        CLOUDY    63  58  85 CALM      29.75S
OFFUTT AFB     PTSUNNY   63  57  82 S3        29.76R
PLATTSMOUTH    CLOUDY    60  55  84 SW6       29.77R
WAHOO          FAIR      61  51  70 W12       29.75S
$$



USA.gov is the U.S. government's official web portal to all federal, state and local government web resources and services.